101  
ASUS41 KLWX 010411  
RWRLWX  
 
REGIONAL WEATHER ROUNDUP  
NATIONAL WEATHER SERVICE BALTIMORE MD/WASHINGTON DC  
1200 AM EDT MON MAY 01 2017  
 
NOTE: "FAIR" INDICATES FEW OR NO CLOUDS BELOW 12,000 FEET  
WITH NO SIGNIFICANT WEATHER AND/OR S TO VISIBILITY
.  
TC=TEMPERATURE CELSIUS  
 
* =NON NWS SITE. STATION DOES NOT REPORT PRECIPITATION (E.G. RAIN,  
SNOW, ETC.), THUNDER, OR FOG.
 
 
DCZ001-MDZ009-015-VAZ040>042-051-053>054-010500-  
WASHINGTON METRO  
 
CITY SKY/WX TMP DP RH WIND PRES REMARKS
 
WASHINGTON NAT PTCLDY 68 64 87 NE12 30.03S  
DULLES PTCLDY 73 62 68 SE6 30.01S  
ANDREWS AFB CLEAR 65 62 88 E6 30.03S  
FT BELVOIR CLEAR 68 64 88 SE3 30.01S  
QUANTICO CLEAR 76 68 76 SW14 30.02S  
COLLEGE PARK* CLEAR 63 60 90 CALM 30.04S  
LEESBURG* CLEAR 77 64 65 SE6 30.02S  
MANASSAS* N/A 73 64 73 S8 30.01S  
 

 
 
MDZ006>007-011-014-010500-  
BALTIMORE METRO  
 
CITY SKY/WX TMP DP RH WIND PRES REMARKS
 
BWI AIRPORT MOCLDY 61 59 93 E12 30.05F  
MD SCIENCE CTR N/A 62 55 77 MISG 30.07F  
MARTIN STATE PTCLDY 59 57 94 NE7 30.09S  
ANNAPOLIS CLEAR 63 61 93 NE7 30.04F  
FORT MEADE* CLEAR 61 57 88 E7 30.07F  
 

 
 
MDZ012-015-019>023-010500-  
MARYLAND EASTERN SHORE  
 
CITY SKY/WX TMP DP RH WIND PRES REMARKS
 
OCEAN CITY PTCLDY 71 67 87 SW8 30.08F  
SALISBURY PTCLDY 68 66 93 E5 30.06S  
BAY BRIDGE AP* CLEAR 61 57 88 E7 30.05F  
CAMBRIDGE* N/A 64 61 88 E5 30.05F  
EASTON* CLEAR 61 58 90 E5 30.09F  
 

 
 
MDZ017>025-010500-  
SOUTHERN MARYLAND  
 
CITY SKY/WX TMP DP RH WIND PRES REMARKS
 
PATUXENT RIVER PTCLDY 75 68 78 S10 30.03F  
ST INIGOES PTCLDY 76 66 71 SE7 30.02F  
LEONARDTOWN* PTCLDY 73 64 73 S3 30.05S  
 

 
 
MDZ003>005-010500-  
NORTH CENTRAL MARYLAND  
 
CITY SKY/WX TMP DP RH WIND PRES REMARKS
 
FREDERICK* CLEAR 66 66 100 N3 30.05S  
HAGERSTOWN APT CLEAR 74 62 66 SE9 29.98F  
WESTMINSTER* NOT AVBL  
 

 
 
MDZ501>502-010500-  
WESTERN MARYLAND  
 
CITY SKY/WX TMP DP RH WIND PRES REMARKS
 
OAKLAND* CLEAR 64 54 68 S10 30.02F  
CUMBERLAND* CLEAR 68 66 94 CALM 29.98F  
 

 
 
VAZ025>031-010500-  
SHENANDOAH VALLEY  
 
CITY SKY/WX TMP DP RH WIND PRES REMARKS
 
WINCHESTER* CLEAR 68 59 73 S5 29.98S  
FRONT ROYAL* CLEAR 72 61 68 S3 29.97F  
LURAY* CLEAR 72 63 73 SW7 30.00F  
NEW MARKET* CLEAR 71 60 67 SW10 29.99F  
STAUNTON* CLEAR 70 62 75 S8 30.05S  
WAYNESBORO* CLEAR 70 64 80 S5 30.05F  
 

 
 
WVZ021-048>050-054>055-010500-  
EASTERN WEST VIRGINIA PANHANDLE  
 
CITY SKY/WX TMP DP RH WIND PRES REMARKS
 
MARTINSBURG CLEAR 70 61 73 SE7 29.97S  
PETERSBURG* PTCLDY 75 60 60 E3 29.98S  
 

 
 
VAZ036>039-050-010500-  
CENTRAL FOOTHILLS  
 
CITY SKY/WX TMP DP RH WIND PRES REMARKS
 
CHARLOTTESVILL CLEAR 74 64 71 S10 30.02S  
CULPEPER* CLEAR 74 65 72 S6 30.01F  
ORANGE* CLEAR 72 63 73 SW9 30.02S  
GORDONSVILLE* PTCLDY 71 65 81 SW8 30.02S  
WARRENTON* CLEAR 74 61 63 S5 30.01S  
 

 
 
VAZ055>057-010500-  
NORTH AND CENTRAL PIEDMONT  
 
CITY SKY/WX TMP DP RH WIND PRES REMARKS
 
FREDERICKSBRG* CLEAR 75 65 71 S8 30.02S  
STAFFORD* CLEAR 74 64 71 S6 30.05F  
 

 
 
NCZ024-NYZ072-PAZ021-071-VAZ022-071-010500-  
OTHER REGIONAL OBSERVATIONS  
 
CITY SKY/WX TMP DP RH WIND PRES REMARKS
 
NEW YORK CITY CLOUDY 53 43 68 E8 30.18S  
PHILADELPHIA CLOUDY 52 49 89 E8 30.12F  
PITTSBURGH MOCLDY 74 59 59 S7 29.87F  
ROANOKE PTCLDY 71 65 81 SE5 30.06F  
RICHMOND PTCLDY 74 67 78 S9 30.05S  
RALEIGH MOCLDY 71 66 84 S13G21 30.10F  
 

 
 
ANZ530>537-010500-  
MARINE OBSERVATIONS  
 
STATION/POSITION TIME TEMP WIND PRES
 
AIR SEA DIR/SP/G  
(UTC) (F) (DEG/KT/KT) (MB)  
THOMAS PT LIGHT 0400 62 63 70/ 9/ 11 N/A  
BALT KEY BRIDGE 0348 61 70/ 10/ 11 1017.9F  
COVE POINT 0348 67 190/ 11/ 12 1017.6F  
LEWISETTA 0348 78 74 210/ 12/ 15 1016.7F  
SOLOMONS ISLAND 0348 74 63 200/ 7/ 9 N/A  
PINEY POINT 0348 200/ 6/ 7 N/A  
 

 
 
 
 
CLICK HERE TO GO TO PREVIOUS BULLETINS.

The Nexlab VA Page
The Nexlab MD Page
The Nexlab WV Page Main Text Page